CAPE
0 0 0 0 0 0 0 0 0 1 2 2 1 0 0 0 0 0 0 0 0 3 0 0 0 0 60 243 337 171 120 85 1 117 256 679 702 695 539 450 446 269 252 381 229
0 0 0 0 0 0 0 0 1 2 2 1 1 0 0 0 0 0 0 0 0 30 0 0 0 0 0 0 270 89 74 13 3 200 524 755 610 499 466 583 472 470 464 427 249
0 0 0 0 0 0 0 1 0 2 2 1 0 0 0 0 0 0 0 0 0 0 0 0 0 0 0 0 2 16 4 9 48 230 395 557 590 396 468 558 599 365 623 370 181
0 0 0 0 0 0 0 0 0 2 3 1 0 0 0 0 0 0 0 271 0 0 0 0 0 0 0 0 0 0 0 12 52 261 379 519 656 515 320 428 744 751 667 328 152
0 0 0 0 0 0 0 0 0 0 2 0 0 0 0 0 0 0 0 0 0 0 0 0 0 0 0 0 0 0 0 0 17 113 168 297 395 736 534 634 709 855 702 507 283
0 0 0 0 0 0 0 0 0 0 0 0 0 0 0 0 0 0 0 0 0 0 0 0 0 0 0 0 0 0 0 0 14 85 141 199 354 647 660 724 709 806 622 579 412
0 0 1 0 0 0 0 0 0 0 0 0 0 0 0 0 0 0 0 0 0 0 0 0 0 0 0 0 0 0 0 0 14 53 103 101 175 403 529 691 702 698 579 480 387
0 0 0 0 0 0 0 0 0 0 0 0 0 0 0 0 0 0 0 0 0 0 0 0 0 0 0 0 0 0 0 0 0 34 60 4 96 209 455 652 634 569 624 672 504
0 0 0 0 0 0 0 0 0 0 0 0 0 0 0 0 0 0 0 0 0 0 0 0 0 0 0 0 0 0 0 0 0 0 29 17 41 148 128 386 603 610 596 494 449
0 0 0 0 0 0 0 0 0 0 0 0 0 0 0 0 0 0 0 0 0 0 0 0 0 0 0 0 0 0 0 0 1 0 20 22 9 55 73 129 116 580 601 439 427
0 0 0 0 0 0 0 0 0 0 0 0 0 0 0 0 0 0 0 0 0 0 0 0 0 0 0 0 0 0 0 0 0 0 0 7 6 19 29 34 16 208 515 535 356
0 0 0 0 0 0 0 0 0 0 0 0 0 0 0 0 0 0 0 0 0 0 0 0 0 0 0 0 0 0 0 0 0 7 1 0 0 5 10 14 14 8 8 143 94
0 0 0 0 0 0 0 0 0 0 0 0 0 0 0 0 0 0 0 0 0 0 0 0 0 0 0 0 0 0 0 0 0 0 0 0 0 0 0 0 0 7 7 9 66
0 0 0 0 0 0 0 0 0 0 0 0 0 0 0 0 0 0 0 0 0 0 0 0 0 0 0 0 0 0 0 0 0 0 0 0 0 0 0 0 8 12 4 0 0
0 0 0 0 0 0 0 0 0 0 0 0 0 0 0 0 0 0 0 0 0 0 0 0 0 0 0 0 0 0 0 0 0 0 0 0 0 0 0 0 8 4 7 19 23
0 0 0 0 0 0 0 0 0 0 0 0 0 0 0 0 0 0 0 0 0 0 0 0 0 0 0 0 0 0 0 0 0 0 0 0 0 0 0 0 0 12 20 26 14
0 0 0 0 0 0 0 0 0 0 0 0 0 0 0 0 0 0 0 0 0 0 0 0 0 0 0 0 0 0 0 0 0 0 0 0 0 0 0 0 0 2 56 88 101
0 0 0 0 0 0 0 0 0 0 0 0 0 0 0 0 0 0 0 0 0 0 0 0 0 0 0 0 0 0 0 0 0 0 0 0 0 0 0 0 0 0 15 56 68
0 0 0 0 0 0 0 0 0 0 0 0 0 0 0 0 0 0 0 0 0 0 0 0 0 0 0 0 0 0 0 0 0 0 0 0 0 0 0 0 0 0 0 19 59
0 0 0 0 0 0 0 0 0 0 0 0 0 0 0 0 0 0 0 0 0 0 0 0 0 0 0 0 0 0 0 0 0 0 0 0 0 0 0 0 0 0 0 27 30
0 0 0 0 0 0 0 0 0 0 0 0 0 0 0 0 0 0 0 0 0 0 0 0 0 0 0 0 0 0 0 0 0 0 0 0 0 0 0 0 0 8 78 18 2
0 0 0 0 0 0 0 0 0 0 0 0 0 0 0 0 0 0 0 0 0 0 0 0 0 0 0 0 0 0 0 0 0 0 0 0 0 0 0 0 0 1 150 178 23
0 0 0 0 0 0 0 0 0 0 0 0 0 0 0 0 0 0 0 0 0 0 0 0 0 0 0 0 0 0 0 0 0 0 0 0 0 0 0 0 0 19 225 57 64
0 0 0 0 0 0 0 0 0 0 0 0 0 0 0 0 0 0 0 0 0 0 0 0 0 0 0 0 0 0 0 0 0 0 0 0 0 0 0 0 0 9 241 54 13
0 0 0 0 0 0 0 0 0 0 0 0 0 0 0 0 0 0 0 0 0 0 0 0 0 0 0 0 0 0 0 0 0 0 0 0 0 0 0 0 0 383 270 133 38
0 0 0 0 0 0 0 0 0 0 0 0 0 0 0 0 0 0 0 0 0 0 0 0 0 0 0 0 0 0 0 0 0 0 0 0 0 0 0 0 26 1406 1358 644 425
0 0 0 0 0 0 0 0 0 0 0 0 0 0 0 0 0 0 0 0 0 0 0 0 0 0 0 0 0 0 0 0 0 0 0 0 0 0 0 0 834 1646 1450 1030 625
CIN
0 0 0 0 0 0 0 0 0 0 0 0 0 0 0 0 0 0 0 0 0 -237 0 0 0 0 -371 -427 -395 -375 -145 -73 -31 -114 -159 -183 -230 -158 -184 -189 -127 -184 -148 -37 -42
0 0 0 0 0 0 0 0 0 0 0 0 0 0 0 0 0 0 0 0 0 -1030 0 0 0 0 0 0 -322 -274 -228 -108 -32 -168 -165 -204 -274 -230 -232 -173 -149 -126 -52 -24 -41
0 0 0 0 0 0 0 0 0 0 0 0 0 0 0 0 0 0 0 0 0 0 0 0 0 0 0 0 -138 -245 -108 -94 -192 -150 -150 -185 -227 -245 -267 -168 -171 -228 -88 -73 -111
0 0 0 0 0 0 0 0 0 0 0 0 0 0 0 0 0 0 0 -880 0 0 0 0 0 0 0 0 0 0 -14 -147 -171 -143 -199 -204 -240 -249 -266 -238 -166 -165 -146 -155 -198
0 0 0 0 0 0 0 0 0 0 0 0 0 0 0 0 0 0 0 0 0 0 0 0 0 0 0 0 0 0 0 0 -90 -177 -188 -186 -208 -212 -215 -207 -156 -118 -114 -125 -157
0 0 0 0 0 0 0 0 0 0 0 0 0 0 0 0 0 0 0 0 0 0 0 0 0 0 0 0 0 0 0 0 -156 -171 -207 -234 -240 -221 -192 -195 -146 -116 -144 -116 -128
0 0 0 0 0 0 0 0 0 0 0 0 0 0 0 0 0 0 0 0 0 0 0 0 0 0 0 0 0 0 0 0 -196 -241 -234 -275 -256 -248 -253 -189 -166 -138 -132 -141 -143
0 0 0 0 0 0 0 0 0 0 0 0 0 0 0 0 0 0 0 0 0 0 0 0 0 0 0 0 0 0 0 0 0 -214 -272 -119 -256 -258 -258 -205 -194 -174 -149 -115 -157
0 0 0 0 0 0 0 0 0 0 0 0 0 0 0 0 0 0 0 0 0 0 0 0 0 0 0 0 0 0 0 0 0 0 -241 -278 -283 -292 -294 -293 -254 -210 -201 -201 -209
0 0 0 0 0 0 0 0 0 0 0 0 0 0 0 0 0 0 0 0 0 0 0 0 0 0 0 0 0 0 0 0 -18 -6 -240 -307 -297 -327 -343 -342 -376 -273 -225 -260 -272
0 0 0 0 0 0 0 0 0 0 0 0 0 0 0 0 0 0 0 0 0 0 0 0 0 0 0 0 0 0 0 0 0 0 0 -303 -331 -315 -346 -362 -397 -349 -296 -276 -319
0 0 0 0 0 0 0 0 0 0 0 0 0 0 0 0 0 0 0 0 0 0 0 0 0 0 0 0 0 0 0 0 0 -179 -37 0 0 -238 -325 -330 -379 -393 -100 -375 -402
0 0 0 0 0 0 0 0 0 0 0 0 0 0 0 0 0 0 0 0 0 0 0 0 0 0 0 0 0 0 0 0 0 0 0 0 0 0 0 0 0 -386 -417 -343 -437
0 0 0 0 0 0 0 0 0 0 0 0 0 0 0 0 0 0 0 0 0 0 0 0 0 0 0 0 0 0 0 0 0 0 0 0 0 0 0 0 -316 -366 -366 0 0
0 0 0 0 0 0 0 0 0 0 0 0 0 0 0 0 0 0 0 0 0 0 0 0 0 0 0 0 0 0 0 0 0 0 0 0 0 0 0 0 -342 -379 -428 -473 -487
0 0 0 0 0 0 0 0 0 0 0 0 0 0 0 0 0 0 0 0 0 0 0 0 0 0 0 0 0 0 0 0 0 0 0 0 0 0 0 0 0 -349 -391 -420 -460
0 0 0 0 0 0 0 0 0 0 0 0 0 0 0 0 0 0 0 0 0 0 0 0 0 0 0 0 0 0 0 0 0 0 0 0 0 0 0 0 0 -160 -370 -374 -422
0 0 0 0 0 0 0 0 0 0 0 0 0 0 0 0 0 0 0 0 0 0 0 0 0 0 0 0 0 0 0 0 0 0 0 0 0 0 0 0 0 0 -305 -332 -349
0 0 0 0 0 0 0 0 0 0 0 0 0 0 0 0 0 0 0 0 0 0 0 0 0 0 0 0 0 0 0 0 0 0 0 0 0 0 0 0 0 0 0 -245 -278
0 0 0 0 0 0 0 0 0 0 0 0 0 0 0 0 0 0 0 0 0 0 0 0 0 0 0 0 0 0 0 0 0 0 0 0 0 0 0 0 0 0 0 -270 -315
0 0 0 0 0 0 0 0 0 0 0 0 0 0 0 0 0 0 0 0 0 0 0 0 0 0 0 0 0 0 0 0 0 0 0 0 0 0 0 0 0 -297 -407 -350 -97
0 0 0 0 0 0 0 0 0 0 0 0 0 0 0 0 0 0 0 0 0 0 0 0 0 0 0 0 0 0 0 0 0 0 0 0 0 0 0 0 0 -32 -556 -680 -757
0 0 0 0 0 0 0 0 0 0 0 0 0 0 0 0 0 0 0 0 0 0 0 0 0 0 0 0 0 0 0 0 0 0 0 0 0 0 0 0 0 -563 -665 -778 -825
0 0 0 0 0 0 0 0 0 0 0 0 0 0 0 0 0 0 0 0 0 0 0 0 0 0 0 0 0 0 0 0 0 0 0 0 0 0 0 0 0 -327 -716 -858 -457
0 0 0 0 0 0 0 0 0 0 0 0 0 0 0 0 0 0 0 0 0 0 0 0 0 0 0 0 0 0 0 0 0 0 0 0 0 0 0 0 0 -571 -664 -766 -680
0 0 0 0 0 0 0 0 0 0 0 0 0 0 0 0 0 0 0 0 0 0 0 0 0 0 0 0 0 0 0 0 0 0 0 0 0 0 0 0 -413 -438 -500 -637 -683
0 0 -2 0 0 0 0 0 0 0 0 0 0 0 0 0 0 0 0 0 0 0 0 0 0 0 0 0 0 0 0 0 0 0 0 0 0 0 0 0 -488 -429 -487 -555 -580
Wind_Speed
20 19 19 19 19 18 18 20 19 17 14 13 12 11 11 11 14 3 6 10 6 10 5 6 7 8 3 2 3 1 3 1 8 13 9 18 19 13 12 13 5 9 18 17 20
20 20 20 19 20 19 18 19 19 18 16 13 11 10 10 9 3 7 11 10 7 9 1 3 4 6 5 6 3 6 4 7 11 20 15 16 24 11 11 17 17 20 19 19 19
21 21 21 21 20 21 19 18 19 17 15 13 11 10 8 6 3 10 2 15 8 4 1 2 5 3 4 5 7 5 5 11 17 21 20 16 15 7 20 11 17 24 23 20 18
22 22 22 22 21 21 21 21 20 17 13 11 10 10 8 2 5 3 3 9 8 2 2 5 3 6 5 7 6 8 12 18 19 18 17 13 16 14 12 11 19 21 22 19 18
22 23 23 23 23 22 22 21 19 16 13 9 8 7 2 1 11 2 4 7 6 4 4 2 3 1 2 10 5 5 6 14 22 20 17 17 14 14 13 17 18 19 20 18 15
22 22 23 23 22 22 21 20 19 15 12 7 6 3 1 3 6 8 7 2 4 4 5 6 4 5 8 6 3 1 12 20 22 21 20 22 18 10 15 19 18 20 18 17 17
21 22 22 24 24 23 23 22 20 16 11 4 3 3 1 13 1 4 8 5 3 6 4 4 3 2 5 10 9 1 12 15 20 16 20 21 12 16 22 22 21 19 17 17 17
21 22 23 23 24 24 24 24 21 13 8 2 2 2 9 7 6 3 4 3 5 5 4 11 6 2 0 4 9 4 8 6 7 16 14 6 7 13 24 20 19 19 17 16 17
22 22 23 24 24 24 25 27 21 9 5 2 1 1 10 10 7 10 9 5 4 4 5 9 3 1 6 4 6 7 4 7 5 7 9 4 8 16 16 20 19 18 18 17 16
23 23 24 24 24 23 26 23 6 3 3 5 5 3 6 5 6 6 10 7 4 3 5 1 5 3 3 5 5 6 3 5 11 10 3 10 8 21 19 16 16 20 18 17 17
22 24 25 26 26 22 15 6 4 1 2 11 8 6 4 4 3 4 6 5 3 4 4 3 3 9 12 6 5 5 5 7 4 9 6 13 14 22 20 16 14 18 18 17 18
22 24 26 28 28 27 3 1 2 5 11 15 15 13 14 4 4 8 7 7 5 6 3 4 10 14 6 8 8 9 12 11 5 19 7 11 18 20 21 21 20 19 18 20 18
21 23 26 29 35 2 3 7 8 10 2 9 9 8 8 11 8 11 12 6 4 6 7 8 12 2 6 11 8 11 9 6 14 11 9 12 4 15 16 15 15 17 16 16 20
20 22 24 32 4 6 6 7 14 5 4 9 7 10 7 9 7 10 12 9 4 12 5 7 10 8 7 10 6 9 1 6 6 6 7 7 5 10 16 17 17 18 17 19 20
19 20 21 17 6 5 7 14 17 4 3 7 7 5 8 10 9 10 13 5 9 7 9 12 5 8 7 16 7 8 2 6 5 4 6 3 6 5 13 15 18 21 21 22 21
20 19 20 5 3 11 12 17 3 6 10 7 9 8 9 7 4 7 10 4 6 4 2 10 4 6 11 14 13 3 3 8 5 4 3 8 7 4 17 28 23 22 22 22 21
20 20 15 6 7 4 12 4 5 6 5 7 7 12 15 9 7 6 14 15 7 7 7 7 11 10 5 8 5 8 8 5 5 6 7 3 2 12 19 19 28 26 25 23 21
19 22 8 9 7 5 5 5 6 9 12 7 5 12 13 7 7 7 10 12 7 5 4 7 8 7 5 9 9 5 10 8 5 3 6 6 6 14 15 22 21 25 25 21 20
17 4 6 6 11 4 5 4 13 8 6 5 5 11 4 3 8 9 10 17 14 9 9 7 8 5 5 6 11 5 3 9 7 2 4 4 6 7 8 9 10 13 17 20 21
7 4 8 7 13 5 4 10 8 7 3 6 3 4 8 16 8 13 11 16 10 11 6 4 2 6 11 2 1 10 5 2 4 2 4 6 5 5 5 7 6 8 7 15 15
2 4 8 9 9 3 10 10 7 9 5 3 3 4 2 1 7 6 12 7 17 11 11 9 5 9 0 4 9 2 1 6 6 6 7 1 7 7 6 9 9 9 6 6 9
3 3 5 8 4 4 6 6 3 4 4 4 1 6 6 1 6 4 13 12 20 12 11 11 7 10 15 10 6 10 12 8 7 6 2 5 6 5 3 8 11 10 8 5 5
3 6 7 5 9 7 3 7 6 5 4 3 5 3 3 4 6 5 12 16 22 21 14 8 4 8 11 9 5 6 6 6 6 5 6 7 7 2 2 8 8 14 10 7 10
2 5 6 1 4 9 8 10 10 8 16 10 8 6 6 3 7 9 8 3 9 22 18 13 6 11 12 9 4 5 7 6 9 5 6 7 6 5 5 10 8 10 11 11 8
1 6 3 5 4 6 4 8 19 12 12 4 6 18 10 5 4 8 8 5 1 9 13 15 10 8 9 9 7 4 5 10 7 8 8 8 13 11 12 13 11 14 12 14 12
2 3 5 9 10 4 2 3 1 6 5 11 7 15 8 11 11 12 5 3 5 4 5 5 7 8 10 9 8 5 9 8 6 2 3 5 6 7 5 9 14 17 16 13 12
2 3 4 6 7 5 1 9 8 8 10 15 14 11 8 17 10 15 10 10 9 6 4 8 8 6 11 5 9 3 7 5 6 5 8 7 9 10 5 10 16 16 18 15 13
Wind_Direction
3 1 358 352 351 350 347 341 338 338 335 331 328 326 317 317 302 200 252 224 178 167 150 133 168 207 166 195 123 20 113 241 150 115 122 101 100 69 94 121 48 77 119 127 128
1 357 355 353 348 347 344 341 337 333 331 331 330 326 322 333 304 263 236 242 193 180 270 53 254 145 197 208 194 155 157 221 156 127 138 118 113 111 108 105 99 99 119 130 136
357 355 352 350 348 344 342 340 337 333 329 328 330 325 326 322 333 249 215 224 178 165 44 249 254 266 236 154 182 215 227 120 125 128 130 125 105 114 123 119 143 142 147 148 148
355 352 350 347 345 343 341 339 338 333 329 324 325 322 329 289 203 293 354 150 132 139 339 315 348 334 316 317 216 150 179 131 142 130 129 135 124 142 129 152 153 152 151 151 157
353 349 347 344 342 340 338 334 336 331 327 320 317 326 299 82 250 214 125 110 116 120 217 263 310 324 301 301 357 77 111 125 140 143 128 130 118 118 125 144 150 150 152 158 162
348 346 343 340 339 336 333 330 330 328 318 313 306 328 67 250 236 163 155 114 161 155 246 171 236 301 272 296 10 108 113 124 122 123 126 121 129 130 152 151 157 158 164 166 169
346 343 341 338 336 334 330 326 325 320 312 283 272 259 247 233 259 145 154 207 194 161 240 235 213 274 325 325 333 51 85 121 129 132 134 114 99 124 158 160 167 176 169 172 175
343 341 338 337 334 331 327 321 319 308 300 220 209 233 246 234 229 215 220 260 267 228 222 274 302 268 97 308 356 44 87 137 207 141 166 74 164 159 153 161 169 167 170 173 177
341 339 335 334 333 330 325 317 307 279 257 204 161 185 261 301 167 220 177 200 213 270 260 275 35 242 0 55 6 3 163 143 206 246 144 122 152 180 167 167 174 175 176 178 180
338 337 334 331 330 330 323 310 294 308 204 204 255 349 275 235 190 169 200 185 188 227 342 307 49 24 351 85 209 217 200 188 179 195 169 144 168 171 174 180 171 176 178 183 183
336 334 332 329 327 326 339 0 18 39 198 200 197 243 266 265 121 214 202 150 164 122 162 293 85 228 236 193 246 272 249 255 218 161 128 165 158 177 179 179 178 175 181 186 188
334 333 331 329 324 322 127 250 236 36 299 228 237 242 263 44 276 221 144 157 139 181 143 347 233 231 230 256 240 253 263 239 174 162 119 171 170 181 181 186 184 181 182 183 182
331 332 331 328 320 37 209 239 313 321 277 282 199 212 222 152 218 211 150 164 135 173 192 175 235 75 226 277 277 281 230 166 181 159 33 123 143 192 199 189 187 193 192 188 183
326 329 334 335 24 328 269 321 325 280 34 270 216 247 179 163 229 198 172 155 202 192 183 229 267 267 276 270 251 256 254 278 158 107 171 182 216 207 191 193 196 196 194 197 192
322 326 330 333 282 309 287 331 317 88 327 232 204 186 154 167 159 194 170 117 189 183 132 238 244 234 246 247 249 224 150 62 82 88 115 228 90 232 174 200 201 201 201 200 197
316 320 327 344 275 245 313 301 31 54 247 280 162 163 142 177 228 140 157 124 170 182 259 240 276 163 226 264 231 109 54 46 63 104 36 217 153 245 178 203 198 203 204 201 200
311 312 305 280 239 317 341 2 57 182 281 251 183 159 173 173 216 136 171 187 167 149 241 315 264 249 215 257 355 74 59 1 358 5 226 302 62 231 210 197 196 197 203 202 200
314 309 259 222 230 271 352 60 183 206 244 322 138 146 177 152 225 156 148 190 238 120 131 181 302 196 224 193 192 175 143 149 196 213 273 4 250 263 206 185 191 197 200 196 199
322 300 273 238 203 131 83 190 203 191 214 271 54 158 240 220 164 164 177 198 199 162 167 158 257 282 183 212 139 240 155 188 121 98 38 272 284 318 80 109 137 191 201 199 199
322 319 251 168 149 112 108 232 209 211 16 14 209 184 195 198 177 173 177 194 201 175 154 242 248 221 259 160 144 150 170 79 6 181 283 294 293 239 91 120 128 83 172 200 202
83 332 263 151 145 118 209 209 237 281 68 21 86 6 31 314 249 202 187 219 193 199 150 179 97 277 81 186 183 29 110 66 118 128 166 242 275 214 173 152 124 119 98 119 171
340 288 257 126 141 202 215 185 279 264 21 256 304 196 226 358 285 256 223 188 189 180 180 191 159 231 244 259 227 184 188 143 126 262 162 142 276 339 156 137 114 112 101 65 71
313 258 290 125 210 228 262 227 266 313 197 285 243 185 51 35 298 246 229 217 185 190 176 177 211 247 313 345 6 202 184 142 116 88 190 128 255 93 183 101 113 120 104 93 89
319 304 292 91 182 196 223 219 216 215 252 230 247 301 301 260 208 279 313 276 195 201 192 150 142 183 224 205 177 194 178 171 136 124 186 195 176 171 190 127 98 104 107 101 92
235 258 316 345 331 336 289 251 211 220 238 231 226 227 226 264 293 241 259 286 318 234 200 156 185 168 201 204 175 184 222 183 163 187 161 221 168 192 188 149 130 124 115 109 104
223 334 339 291 276 276 274 292 52 259 215 274 213 255 194 217 198 278 293 238 222 316 158 230 210 149 211 212 179 211 217 219 204 149 235 135 199 193 181 120 124 131 128 123 118
299 309 286 282 321 305 226 354 354 360 296 226 259 285 277 246 214 230 229 254 234 194 186 174 159 128 218 194 130 233 207 189 222 197 168 157 203 147 151 126 134 134 131 133 136